Location: Clarion
(42.7316°N, 93.7330°W)
Time: 01:19:16
(UTC+00:00)

CZ-3 Stage 3 - Pass Details

Date: 22 April 2026
Orbit: 211 x 9196 km, 30.8° (Epoch: 20 May)

Event Time Altitude Azimuth Distance (km) Brightness Sun altitude
Exits shadow 09:07:43 33° 201° (SSW) 2,014 3.6 -22.1°
Maximum altitude 09:10:13 41° 164° (SSE) 2,242 4.1 -21.8°
Drops below altitude 10° 09:28:18 10° 104° (ESE) 7,737 7.6 -19.2°
Sets 09:39:12 0° 101° (E) 10,595 8.5 -17.7°
